Location: Bemmer
(51.5498°N, 5.6249°E)
Time: 02:49:33
(UTC+00:00)

FALCON 9 DEB - Pass Details

Date: 03 March 2021
Orbit: 424 x 435 km, 53.0° (Epoch: 13 April)

Event Time Altitude Azimuth Distance (km) Brightness Sun altitude
Rises 18:19:58 0° 287° (WNW) 2,406 8.6 -9.9°
Reaches altitude 10° 18:22:06 10° 284° (WNW) 1,534 7.4 -10.2°
Maximum altitude 18:25:30 62° 204° (SSW) 489 3.4 -10.7°
Enters shadow 18:28:20 14° 124° (SE) 1,302 5.0 -11.2°
